• In Hungary
  • List of Countries
  • For 7 days
  • Water Temperature
  • Satellite Maps
  • Weather Map
  • News
  • Weather Widgets
  • user-avatar
    Login

    Hourly Weather Biskira

    Today, 21 January, Sunday

    Time Temperature Precipitation Wind Pressure Humidity
    00:00 +12°C° 0 mm 5 mps 757 mmHg 61%
    01:00 +12°C° 0 mm 5 mps 757 mmHg 60%
    02:00 +12°C° 0 mm 5 mps 757 mmHg 60%
    03:00 +12°C° 0 mm 5 mps 757 mmHg 60%
    04:00 +12°C° 0 mm 5 mps 757 mmHg 59%
    05:00 +11°C° 0 mm 4 mps 757 mmHg 58%
    06:00 +11°C° 0 mm 4 mps 756 mmHg 57%
    07:00 +12°C° 0 mm 4 mps 757 mmHg 52%
    08:00 +14°C° 0 mm 4 mps 757 mmHg 48%
    09:00 +15°C° 0 mm 4 mps 757 mmHg 43%
    10:00 +16°C° 0 mm 5 mps 757 mmHg 40%
    11:00 +19°C° 0 mm 5 mps 756 mmHg 37%
    12:00 +20°C° 0 mm 6 mps 756 mmHg 34%
    13:00 +21°C° 0 mm 6 mps 756 mmHg 34%
    14:00 +22°C° 0 mm 6 mps 756 mmHg 34%
    15:00 +22°C° 0 mm 6 mps 756 mmHg 34%
    16:00 +21°C° 0 mm 5 mps 756 mmHg 38%
    17:00 +20°C° 0 mm 5 mps 756 mmHg 42%
    18:00 +19°C° 0 mm 4 mps 757 mmHg 46%
    19:00 +18°C° 0 mm 4 mps 757 mmHg 48%
    20:00 +18°C° 0 mm 4 mps 757 mmHg 51%
    21:00 +17°C° 0 mm 4 mps 758 mmHg 53%
    22:00 +16°C° 0 mm 5 mps 758 mmHg 54%
    23:00 +16°C° 0 mm 5 mps 758 mmHg 56%

    Tomorrow, 22 January, Monday

    Time Temperature Precipitation Wind Pressure Humidity
    00:00 +15°C° 0 mm 5 mps 758 mmHg 57%
    01:00 +15°C° 0 mm 5 mps 758 mmHg 58%
    02:00 +15°C° 0 mm 5 mps 758 mmHg 59%
    03:00 +15°C° 0 mm 5 mps 759 mmHg 60%
    04:00 +14°C° 0 mm 5 mps 759 mmHg 61%
    05:00 +14°C° 0 mm 5 mps 759 mmHg 63%
    06:00 +14°C° 0 mm 5 mps 759 mmHg 64%
    07:00 +15°C° 0 mm 5 mps 759 mmHg 61%
    08:00 +16°C° 0 mm 5 mps 759 mmHg 57%
    09:00 +17°C° 0 mm 5 mps 759 mmHg 53%
    10:00 +19°C° 0 mm 4 mps 759 mmHg 50%
    11:00 +21°C° 0 mm 4 mps 759 mmHg 46%
    12:00 +22°C° 0 mm 4 mps 759 mmHg 42%
    13:00 +22°C° 0 mm 4 mps 759 mmHg 41%
    14:00 +23°C° 0 mm 4 mps 758 mmHg 39%
    15:00 +23°C° 0 mm 4 mps 758 mmHg 38%
    16:00 +22°C° 0 mm 4 mps 758 mmHg 42%
    17:00 +21°C° 0 mm 3 mps 758 mmHg 45%
    18:00 +19°C° 0 mm 3 mps 758 mmHg 49%
    19:00 +19°C° 0 mm 3 mps 759 mmHg 50%
    20:00 +18°C° 0 mm 3 mps 759 mmHg 51%
    21:00 +18°C° 0 mm 3 mps 759 mmHg 52%
    22:00 +18°C° 0 mm 2 mps 759 mmHg 53%
    23:00 +17°C° 0 mm 2 mps 759 mmHg 55%

    Day after tomorrow, 23 January, Tuesday

    Time Temperature Precipitation Wind Pressure Humidity
    00:00 +17°C° 0 mm 2 mps 759 mmHg 56%
    01:00 +16°C° 0 mm 2 mps 759 mmHg 57%
    02:00 +16°C° 0 mm 3 mps 758 mmHg 57%
    03:00 +16°C° 0 mm 3 mps 758 mmHg 58%
    04:00 +16°C° 0 mm 3 mps 758 mmHg 59%
    05:00 +16°C° 0 mm 3 mps 759 mmHg 60%
    06:00 +14°C° 0 mm 3 mps 759 mmHg 61%
    07:00 +15°C° 0 mm 4 mps 759 mmHg 57%
    08:00 +18°C° 0 mm 4 mps 759 mmHg 52%
    09:00 +19°C° 0 mm 4 mps 759 mmHg 48%
    10:00 +20°C° 0 mm 4 mps 759 mmHg 43%
    11:00 +21°C° 0 mm 4 mps 759 mmHg 39%
    12:00 +22°C° 0 mm 3 mps 759 mmHg 34%
    13:00 +24°C° 0 mm 3 mps 759 mmHg 33%
    14:00 +24°C° 0 mm 3 mps 758 mmHg 32%
    15:00 +24°C° 0 mm 3 mps 758 mmHg 31%
    16:00 +22°C° 0 mm 3 mps 758 mmHg 35%
    17:00 +21°C° 0 mm 3 mps 759 mmHg 39%
    18:00 +19°C° 0 mm 3 mps 759 mmHg 43%
    19:00 +19°C° 0 mm 3 mps 759 mmHg 45%
    20:00 +18°C° 0 mm 3 mps 760 mmHg 47%
    21:00 +18°C° 0 mm 3 mps 760 mmHg 49%
    22:00 +17°C° 0 mm 3 mps 760 mmHg 50%
    23:00 +17°C° 0 mm 2 mps 760 mmHg 52%

    24 January, Wednesday

    Time Temperature Precipitation Wind Pressure Humidity
    00:00 +16°C° 0 mm 2 mps 760 mmHg 54%
    01:00 +16°C° 0 mm 2 mps 760 mmHg 54%
    02:00 +16°C° 0 mm 2 mps 760 mmHg 55%
    03:00 +15°C° 0 mm 2 mps 760 mmHg 55%
    04:00 +15°C° 0 mm 2 mps 760 mmHg 56%
    05:00 +14°C° 0 mm 2 mps 760 mmHg 57%
    06:00 +14°C° 0 mm 2 mps 761 mmHg 59%
    07:00 +15°C° 0 mm 2 mps 761 mmHg 55%
    08:00 +16°C° 0 mm 2 mps 761 mmHg 51%
    09:00 +18°C° 0 mm 1 mps 762 mmHg 47%
    10:00 +18°C° 0 mm 2 mps 761 mmHg 45%
    11:00 +19°C° 0 mm 2 mps 761 mmHg 43%
    12:00 +20°C° 0 mm 3 mps 761 mmHg 42%
    13:00 +20°C° 0 mm 2 mps 760 mmHg 42%
    14:00 +20°C° 0 mm 2 mps 760 mmHg 41%
    15:00 +20°C° 0 mm 2 mps 760 mmHg 41%
    16:00 +19°C° 0 mm 2 mps 760 mmHg 45%
    17:00 +18°C° 0 mm 2 mps 760 mmHg 49%
    18:00 +17°C° 0 mm 2 mps 760 mmHg 53%
    19:00 +17°C° 0 mm 2 mps 761 mmHg 56%
    20:00 +16°C° 0 mm 2 mps 761 mmHg 59%
    21:00 +16°C° 0 mm 2 mps 761 mmHg 62%
    22:00 +15°C° 0 mm 1 mps 761 mmHg 64%
    23:00 +14°C° 0 mm 1 mps 761 mmHg 67%

    25 January, Thursday

    Time Temperature Precipitation Wind Pressure Humidity
    00:00 +14°C° 0 mm 1 mps 761 mmHg 70%
    01:00 +13°C° 0 mm 1 mps 761 mmHg 72%
    02:00 +13°C° 0 mm 1 mps 760 mmHg 74%
    03:00 +13°C° 0 mm 1 mps 760 mmHg 76%
    04:00 +12°C° 0 mm 1 mps 760 mmHg 77%
    05:00 +12°C° 0 mm 1 mps 760 mmHg 77%
    06:00 +12°C° 0 mm 1 mps 760 mmHg 78%
    07:00 +13°C° 0 mm 1 mps 760 mmHg 73%
    08:00 +14°C° 0 mm 1 mps 760 mmHg 68%
    09:00 +15°C° 0 mm 2 mps 760 mmHg 63%
    10:00 +16°C° 0 mm 2 mps 760 mmHg 59%
    11:00 +17°C° 0 mm 2 mps 759 mmHg 55%
    12:00 +18°C° 0 mm 3 mps 759 mmHg 52%
    13:00 +18°C° 0 mm 3 mps 758 mmHg 50%
    14:00 +19°C° 0 mm 2 mps 757 mmHg 48%
    15:00 +19°C° 0 mm 2 mps 757 mmHg 47%
    16:00 +18°C° 0 mm 2 mps 757 mmHg 50%
    17:00 +17°C° 0 mm 2 mps 757 mmHg 53%
    18:00 +17°C° 0 mm 2 mps 757 mmHg 57%
    19:00 +16°C° 0 mm 2 mps 757 mmHg 58%
    20:00 +16°C° 0 mm 2 mps 757 mmHg 59%
    21:00 +15°C° 0 mm 2 mps 757 mmHg 61%
    22:00 +15°C° 0 mm 2 mps 757 mmHg 62%
    23:00 +14°C° 0 mm 2 mps 757 mmHg 64%

    26 January, Friday

    Time Temperature Precipitation Wind Pressure Humidity
    00:00 +14°C° 0 mm 2 mps 756 mmHg 66%
    01:00 +14°C° 0 mm 2 mps 756 mmHg 66%
    02:00 +13°C° 0 mm 2 mps 756 mmHg 67%
    03:00 +13°C° 0 mm 2 mps 755 mmHg 68%
    04:00 +13°C° 0 mm 2 mps 755 mmHg 69%
    05:00 +12°C° 0 mm 2 mps 755 mmHg 70%
    06:00 +12°C° 0 mm 2 mps 755 mmHg 70%
    07:00 +13°C° 0 mm 2 mps 755 mmHg 66%
    08:00 +14°C° 0 mm 2 mps 755 mmHg 61%
    09:00 +15°C° 0 mm 2 mps 755 mmHg 57%
    10:00 +16°C° 0 mm 2 mps 755 mmHg 53%
    11:00 +17°C° 0 mm 2 mps 754 mmHg 49%
    12:00 +18°C° 0 mm 2 mps 754 mmHg 45%
    13:00 +18°C° 0 mm 2 mps 753 mmHg 44%
    14:00 +19°C° 0 mm 2 mps 753 mmHg 42%
    15:00 +19°C° 0 mm 2 mps 753 mmHg 41%
    16:00 +18°C° 0 mm 2 mps 753 mmHg 43%
    17:00 +17°C° 0 mm 2 mps 753 mmHg 46%
    18:00 +17°C° 0 mm 2 mps 754 mmHg 49%
    19:00 +16°C° 0 mm 2 mps 754 mmHg 50%
    20:00 +16°C° 0 mm 3 mps 755 mmHg 52%
    21:00 +14°C° 0 mm 4 mps 755 mmHg 53%
    22:00 +14°C° 0 mm 4 mps 755 mmHg 55%
    23:00 +13°C° 0 mm 4 mps 755 mmHg 57%
    Show more